Location: Kikino
(54.4440°N, 112.0940°W)
Time: 17:39:29
(UTC+00:00)

A-11 Canister half - Pass Details

Date: 21 May 2024
Orbit: 1525 x 1683 km, 47.3° (Epoch: 12 June)

Event Time Altitude Azimuth Distance (km) Brightness Sun altitude
Rises 07:24:02 0° 254° (WSW) 4,722 11.4 -15.2°
Reaches altitude 10° 07:27:07 10° 250° (WSW) 3,756 10.8 -15.2°
Maximum altitude 07:36:21 57° 175° (S) 1,836 9.1 -15.2°
Drops below altitude 10° 07:45:55 10° 101° (E) 3,881 11.1 -15.1°
Sets 07:49:09 0° 98° (E) 4,887 11.6 -15.1°
